Location: Arrakis Observatory
(44.1122°N, 95.7153°W)
Time: 11:47:44
(UTC-05:00)

Amateur Radio Satellites - All Passes

Search period start: 18 April 2014 11:17
Search period end: 19 April 2014 11:17
Location: Arrakis Observatory, 44.1122°N, 95.7153°W

Satellite Date Start Highest point End Downlink Frequencies (MHz)
Time Altitude Azimuth
FUNcube-1 18 Apr 11:18:21 11:21:57 26° 95° (E) 11:25:36 145.950 - 145.970 MHz USB
Saudisat 1A 18 Apr 11:20:58 11:24:24 22° 113° (ESE) 11:27:50 436.775 MHz
Oscar 11 18 Apr 11:31:48 11:36:09 72° 285° (WNW) 11:40:30 145.825 FM, Beacon 2401.500 USB
PCSat 18 Apr 11:37:24 11:42:13 33° 249° (WSW) 11:47:00 145.825 MHz
HO-68 18 Apr 11:42:30 11:49:20 49° 295° (WNW) 11:56:10 435.675 MHz FM
Oscar 16 18 Apr 12:19:24 12:20:22 11° 55° (NE) 12:21:20 437.025 USB, Beacon 2401.1428
RS-15 18 Apr 12:25:50 12:34:27 25° 357° (N) 12:43:02 29.354 - 29.394 USB, Beacon 29.352 USB
KITSAT 1 18 Apr 12:31:54 12:40:02 72° 54° (NE) 12:48:05 435.175 FM
Sapphire 18 Apr 12:38:15 12:39:52 11° 258° (WSW) 12:41:30 437.095 MHz 1200 baud AX-25 AFSK
Uribyol 2 18 Apr 12:51:43 12:53:19 11° 55° (NE) 12:54:55 436.500 FM
FUNcube-1 18 Apr 12:54:42 12:58:22 29° 291° (WNW) 13:02:05 145.950 - 145.970 MHz USB
Saudisat 1A 18 Apr 12:59:24 13:03:43 47° 311° (NW) 13:08:03 436.775 MHz
AO-27 18 Apr 13:28:25 13:32:27 23° 63° (ENE) 13:36:28 436.795 MHz FM
HO-68 18 Apr 13:33:44 13:35:23 11° 316° (NW) 13:37:01 435.675 MHz FM
ITAMSAT 1 18 Apr 13:39:03 13:43:23 28° 64° (ENE) 13:47:44 435.822 SSB
Oscar 19 18 Apr 13:45:43 13:50:43 56° 71° (ENE) 13:55:46 437.125 CW, 437.150 USB
Oscar 16 18 Apr 13:53:40 13:58:46 70° 73° (ENE) 14:03:55 437.025 USB, Beacon 2401.1428
AO-Echo 18 Apr 13:57:35 14:02:11 32° 67° (ENE) 14:06:42 ?
TMSAT-1 18 Apr 14:05:30 14:07:26 12° 56° (NE) 14:09:22 436.925 FM
JAS-1B 18 Apr 14:07:55 14:10:03 11° 52° (NE) 14:12:05 435.800 - 435.900 CW/SSB
Uribyol 2 18 Apr 14:26:46 14:31:55 76° 74° (ENE) 14:37:05 436.500 FM
KITSAT 1 18 Apr 14:28:13 14:34:44 28° 255° (WSW) 14:41:12 435.175 FM
RS-15 18 Apr 14:41:09 14:51:04 37° 31° (NNE) 15:01:03 29.354 - 29.394 USB, Beacon 29.352 USB
Saudisat 1A 18 Apr 14:43:17 14:44:26 11° 332° (NNW) 14:45:34 436.775 MHz
Gurwin Techsat 1B 18 Apr 14:52:42 14:57:37 41° 68° (ENE) 15:02:34 435.225 FM
OPAL 18 Apr 15:01:51 15:04:58 16° 92° (E) 15:08:05 ?
AO-7 18 Apr 15:02:31 15:08:38 24° 50° (NE) 15:14:45 29.400 - 29.500 MHz
AO-27 18 Apr 15:06:36 15:11:38 50° 260° (W) 15:16:42 436.795 MHz FM
ITAMSAT 1 18 Apr 15:17:51 15:22:42 40° 262° (W) 15:27:36 435.822 SSB
SO-50 18 Apr 15:25:13 15:27:27 14° 109° (ESE) 15:29:40 436.795 FM
Oscar 19 18 Apr 15:26:47 15:30:25 19° 269° (W) 15:34:06 437.125 CW, 437.150 USB
Oscar 10/S400 18 Apr 15:28:51 16:23:34 15° 273° (W) 17:45:38 145.825 - 145.975 CW/USB, Beacon 145.810 USB
ISS 18 Apr 15:35:44 15:37:42 15° 133° (SE) 15:39:42 145.800 FM
Oscar 16 18 Apr 15:35:44 15:38:39 15° 271° (W) 15:41:36 437.025 USB, Beacon 2401.1428
AO-Echo 18 Apr 15:36:06 15:40:53 35° 263° (W) 15:45:35 ?
TMSAT-1 18 Apr 15:41:11 15:46:28 78° 74° (ENE) 15:51:47 436.925 FM
JAS-1B 18 Apr 15:51:42 15:59:35 58° 70° (ENE) 16:06:11 435.800 - 435.900 CW/SSB
Uosat F 18 Apr 15:53:29 15:58:09 40° 68° (ENE) 16:02:49 435.120 FM
Uribyol 2 18 Apr 16:09:19 16:11:58 14° 271° (W) 16:14:38 436.500 FM
Gurwin Techsat 1B 18 Apr 16:33:12 16:37:42 28° 266° (W) 16:42:14 435.225 FM
OPAL 18 Apr 16:39:09 16:44:21 71° 289° (WNW) 16:49:32 ?
AO-7 18 Apr 16:52:07 17:00:24 90° 71° (ENE) 17:08:45 29.400 - 29.500 MHz
RS-15 18 Apr 16:53:47 17:04:46 85° 238° (WSW) 17:16:01 29.354 - 29.394 USB, Beacon 29.352 USB
SO-50 18 Apr 17:02:56 17:07:25 73° 306° (NW) 17:11:57 436.795 FM
ISS 18 Apr 17:10:43 17:14:04 80° 330° (NNW) 17:17:26 145.800 FM
TMSAT-1 18 Apr 17:24:15 17:27:00 14° 271° (W) 17:29:46 436.925 FM
Uosat F 18 Apr 17:32:52 17:37:03 26° 265° (W) 17:41:15 435.120 FM
JAS-1B 18 Apr 17:43:29 17:50:23 30° 264° (W) 17:56:23 435.800 - 435.900 CW/SSB
Hamsat 18 Apr 17:45:13 17:48:13 19° 65° (ENE) 17:51:14 145.90 MHz
UOSAT-12 18 Apr 17:52:30 17:56:05 23° 112° (ESE) 17:59:43 437.025 FM, 437.400 FM
OPAL 18 Apr 18:20:42 18:22:19 11° 307° (NW) 18:23:56 ?
JAS-2 18 Apr 18:38:06 18:42:57 29° 66° (ENE) 18:47:28 435.800 - 435.900 CW/SSB, 435.910 FM
SO-50 18 Apr 18:46:19 18:48:48 14° 327° (NNW) 18:51:19 436.795 FM
ISS 18 Apr 18:48:19 18:51:11 25° 349° (NNW) 18:54:04 145.800 FM
AO-7 18 Apr 18:48:38 18:54:14 20° 270° (W) 18:59:53 29.400 - 29.500 MHz
RS-15 18 Apr 19:07:53 19:15:29 22° 259° (W) 19:23:15 29.354 - 29.394 USB, Beacon 29.352 USB
STRAND 1 18 Apr 19:16:07 19:20:14 24° 94° (E) 19:24:20 ?
Hamsat 18 Apr 19:19:57 19:23:55 41° 262° (W) 19:27:57 145.90 MHz
UOSAT-12 18 Apr 19:31:32 19:35:57 47° 311° (NW) 19:40:28 437.025 FM, 437.400 FM
Saudisat 1A 18 Apr 19:45:34 19:49:30 30° 45° (NE) 19:53:23 436.775 MHz
SO-67 18 Apr 19:47:03 19:50:32 78° 77° (ENE) 19:54:03 435.3500 MHz FM
JAS-2 18 Apr 20:22:26 20:27:57 41° 261° (W) 20:33:02 435.800 - 435.900 CW/SSB, 435.910 FM
HO-68 18 Apr 20:25:33 20:31:41 32° 59° (ENE) 20:37:50 435.675 MHz FM
ISS 18 Apr 20:25:51 20:28:40 24° 9° (N) 20:31:29 145.800 FM
STRAND 1 18 Apr 20:54:48 20:59:37 44° 291° (WNW) 21:04:24 ?
Oscar 11 18 Apr 20:55:12 20:56:52 12° 60° (ENE) 20:58:32 145.825 FM, Beacon 2401.500 USB
UOSAT-12 18 Apr 21:15:42 21:17:17 12° 333° (NNW) 21:18:52 437.025 FM, 437.400 FM
Saudisat 1A 18 Apr 21:25:07 21:29:09 36° 243° (WSW) 21:33:08 436.775 MHz
ISS 18 Apr 22:02:31 22:05:52 66° 28° (NNE) 22:09:12 145.800 FM
HO-68 18 Apr 22:12:05 22:19:03 56° 258° (WSW) 22:26:04 435.675 MHz FM
FUNcube-1 18 Apr 22:16:51 22:20:20 26° 68° (ENE) 22:23:49 145.950 - 145.970 MHz USB
Oscar 11 18 Apr 22:28:09 22:32:27 76° 258° (WSW) 22:36:48 145.825 FM, Beacon 2401.500 USB
MaSat-1 18 Apr 22:47:27 22:50:19 61° 298° (WNW) 22:52:53 437.345 MHz
ISS 18 Apr 23:39:53 23:42:19 19° 226° (SW) 23:44:45 145.800 FM
FUNcube-1 18 Apr 23:53:02 23:56:42 28° 264° (W) 00:00:20 145.950 - 145.970 MHz USB
SO-50 18 Apr 23:53:11 23:56:59 24° 41° (NE) 00:00:50 436.795 FM
PCSat 19 Apr 00:37:55 00:42:17 25° 108° (ESE) 00:46:39 145.825 MHz
SO-50 19 Apr 01:33:19 01:37:51 54° 240° (WSW) 01:42:26 436.795 FM
Sapphire 19 Apr 01:34:56 01:40:18 70° 118° (ESE) 01:45:43 437.095 MHz 1200 baud AX-25 AFSK
Oscar 10/S400 19 Apr 01:36:23 01:43:00 11° 124° (SE) 01:51:10 145.825 - 145.975 CW/USB, Beacon 145.810 USB
Oscar 19 19 Apr 01:56:53 02:00:20 18° 91° (E) 02:03:46 437.125 CW, 437.150 USB
Oscar 16 19 Apr 02:04:37 02:08:38 22° 93° (E) 02:12:39 437.025 USB, Beacon 2401.1428
OPAL 19 Apr 02:17:38 02:22:06 33° 64° (ENE) 02:26:40 ?
UOSAT-12 19 Apr 02:19:45 02:24:05 34° 45° (NE) 02:28:23 437.025 FM, 437.400 FM
PCSat 19 Apr 02:20:07 02:25:23 51° 307° (NW) 02:30:41 145.825 MHz
Uribyol 2 19 Apr 02:38:39 02:42:48 24° 94° (E) 02:46:56 436.500 FM
KITSAT 1 19 Apr 03:02:00 03:09:22 40° 110° (ESE) 03:16:45 435.175 FM
Gurwin Techsat 1B 19 Apr 03:08:50 03:11:34 14° 89° (E) 03:14:16 435.225 FM
AO-27 19 Apr 03:17:58 03:23:02 52° 100° (E) 03:28:04 436.795 MHz FM
Sapphire 19 Apr 03:20:01 03:24:16 23° 318° (NW) 03:28:32 437.095 MHz 1200 baud AX-25 AFSK
ITAMSAT 1 19 Apr 03:28:47 03:33:56 64° 102° (ESE) 03:39:03 435.822 SSB
Oscar 19 19 Apr 03:34:57 03:40:06 62° 288° (WNW) 03:45:13 437.125 CW, 437.150 USB
AO-Echo 19 Apr 03:41:32 03:46:21 69° 102° (ESE) 03:51:02 ?
Oscar 16 19 Apr 03:43:15 03:48:15 49° 290° (WNW) 03:53:14 437.025 USB, Beacon 2401.1428
TMSAT-1 19 Apr 03:56:03 04:00:32 27° 94° (E) 04:05:00 436.925 FM
OPAL 19 Apr 03:56:28 04:00:58 33° 262° (W) 04:05:33 ?
UOSAT-12 19 Apr 03:59:57 04:04:14 35° 244° (WSW) 04:08:29 437.025 FM, 437.400 FM
PCSat 19 Apr 04:07:50 04:10:08 13° 329° (NNW) 04:12:26 145.825 MHz
Uribyol 2 19 Apr 04:17:33 04:22:29 46° 291° (WNW) 04:27:24 436.500 FM
Gurwin Techsat 1B 19 Apr 04:46:49 04:52:09 78° 286° (WNW) 04:57:26 435.225 FM
AO-7 19 Apr 04:52:42 04:59:32 28° 94° (E) 05:06:20 29.400 - 29.500 MHz
KITSAT 1 19 Apr 04:56:39 05:04:34 54° 311° (NW) 05:12:32 435.175 FM
AO-27 19 Apr 04:58:16 05:02:12 22° 298° (WNW) 05:06:08 436.795 MHz FM
ITAMSAT 1 19 Apr 05:09:25 05:12:56 19° 300° (WNW) 05:16:26 435.822 SSB
AO-Echo 19 Apr 05:21:49 05:24:33 15° 300° (WNW) 05:27:15 ?
JAS-1B 19 Apr 05:25:21 05:31:03 74° 103° (ESE) 05:36:54 435.800 - 435.900 CW/SSB
TMSAT-1 19 Apr 05:35:38 05:40:35 41° 292° (WNW) 05:45:30 436.925 FM
Uosat F 19 Apr 05:37:57 05:42:59 85° 104° (ESE) 05:47:59 435.120 FM
Gurwin Techsat 1B 19 Apr 06:29:13 06:31:14 12° 304° (NW) 06:33:16 435.225 FM
STRAND 1 19 Apr 06:33:22 06:38:08 41° 68° (ENE) 06:42:55 ?
AO-7 19 Apr 06:44:42 06:52:57 70° 293° (WNW) 07:01:12 29.400 - 29.500 MHz
KITSAT 1 19 Apr 06:56:20 07:02:02 20° 337° (NNW) 07:07:45 435.175 FM
Hamsat 19 Apr 07:04:16 07:08:09 31° 96° (E) 07:12:02 145.90 MHz
MaSat-1 19 Apr 07:09:06 07:11:43 31° 59° (ENE) 07:14:43 437.345 MHz
JAS-1B 19 Apr 07:17:39 07:21:07 17° 303° (WNW) 07:24:36 435.800 - 435.900 CW/SSB
RS-15 19 Apr 07:18:26 07:29:17 55° 114° (ESE) 07:39:49 29.354 - 29.394 USB, Beacon 29.352 USB
Uosat F 19 Apr 07:18:37 07:21:05 14° 302° (WNW) 07:23:32 435.120 FM
JAS-2 19 Apr 07:29:10 07:33:10 21° 93° (E) 07:37:25 435.800 - 435.900 CW/SSB, 435.910 FM
STRAND 1 19 Apr 08:13:14 08:17:28 26° 266° (W) 08:21:43 ?
Sapphire 19 Apr 08:39:09 08:42:35 17° 37° (NE) 08:46:01 437.095 MHz 1200 baud AX-25 AFSK
AO-7 19 Apr 08:39:09 08:44:20 19° 314° (NW) 08:49:31 29.400 - 29.500 MHz
Hamsat 19 Apr 08:40:25 08:44:02 26° 292° (WNW) 08:47:40 145.90 MHz
SO-67 19 Apr 08:43:12 08:46:44 79° 101° (E) 08:50:13 435.3500 MHz FM
MaSat-1 19 Apr 08:48:24 08:50:01 13° 250° (WSW) 08:51:45 437.345 MHz
KITSAT 1 19 Apr 08:56:46 09:01:14 15° 7° (N) 09:05:42 435.175 FM
JAS-2 19 Apr 09:13:23 09:18:35 55° 289° (WNW) 09:24:15 435.800 - 435.900 CW/SSB, 435.910 FM
PCSat 19 Apr 09:23:24 09:28:15 32° 47° (NE) 09:33:03 145.825 MHz
RS-15 19 Apr 09:30:58 09:41:48 52° 318° (NW) 09:52:26 29.354 - 29.394 USB, Beacon 29.352 USB
HO-68 19 Apr 09:38:29 09:44:24 27° 94° (E) 09:50:17 435.675 MHz FM
Oscar 11 19 Apr 10:15:22 10:18:20 18° 92° (E) 10:21:18 145.825 FM, Beacon 2401.500 USB
Sapphire 19 Apr 10:21:30 10:26:57 77° 58° (ENE) 10:32:21 437.095 MHz 1200 baud AX-25 AFSK
KITSAT 1 19 Apr 10:52:49 10:59:49 30° 36° (NE) 11:06:45 435.175 FM
PCSat 19 Apr 11:06:40 11:11:49 45° 247° (WSW) 11:16:56 145.825 MHz
